Regional Weather Roundup
Issued by NWS

Home | Current Version | Previous Version | Text Only | Print | Product List | Glossary On
Versions: 1 2 3 4 5 6 7 8 9 10 11 12 13 14 15 16 17 18 19 20 21 22 23 24 25 26 27 28 29 30 31 32 33 34 35 36 37 38 39 40 41 42 43 44 45 46 47 48 49 50
000
ASUS46 KLOX 261312
RWRCA

SOUTHERN CALIFORNIA WEATHER ROUNDUP
NATIONAL WEATHER SERVICE OXNARD CALIFORNIA
500 AM PST FRI DEC 26 2014

NOTE: "FAIR" INDICATES FEW OR NO CLOUDS BELOW 12,000 FEET WITH NO
SIGNIFICANT WEATHER AND/OR OBSTRUCTIONS TO VISIBILITY.

  -  STATIONS PRECEEDED BY AN ASTERISK (*) ARE NOT NWS OR FAA
     STATIONS AND ARE NOT SUBJECT TO NWS AND FAA QUALITY CONTROL.

CAZ041-042-087-261400-
LA AND ORANGE COUNTY COASTAL AREAS


CITY           SKY/WX    TMP DP  RH WIND       PRES   REMARKS
L.A. DOWNTOWN  CLEAR     43  26  51 CALM      29.98R
L.A. AIRPORT   CLEAR     51  17  26 NE10      29.98R
LONG BEACH     CLEAR     41  29  62 W3        29.98R

CITY           SKY/WX    TMP DP  RH WIND       PRES   REMARKS
AVALON           N/A     45 N/A N/A S5          N/A
FULLERTON      CLEAR     43  24  47 NW5       29.97R
*GETTY CENTER    N/A    N/A N/A N/A N20G33      N/A
HAWTHORNE      CLEAR     48  22  35 CALM      29.99R
*LEO CARRILLO    N/A     52  16  24 NE15G35     N/A
*LOS ALAMITOS  FAIR      40  29  64 NW5       29.98R
*REDONDO BEACH   N/A     41  25  53 CALM      29.98R
SANTA ANA      CLEAR     55  12  18 NE5       29.97R
STA MONICA APT CLEAR     53  14  21 N9G17     29.98R
*UCLA            N/A     50  14  23 NW13      29.96R

$$

CAZ547-548-048-261400-
LA COUNTY VALLEYS AND INLAND EMPIRE


CITY           SKY/WX    TMP DP  RH WIND       PRES   REMARKS
BURBANK        CLEAR     47  16  29 N9        29.98R
VAN NUYS       CLEAR     49  17  28 N13       30.00R

CITY           SKY/WX    TMP DP  RH WIND       PRES   REMARKS
CORONA AIRPORT SUNNY     50  13  22 VRB5      29.99R
*CHATSWORTH      N/A     44  22  40 N2        30.03R
CHINO          CLEAR     37  25  61 E5        29.99R WCI  33
MARCH AFB      CLEAR     44  13  28 NW7       29.97R
*NORTHRIDGE      N/A     46  14  27 NW2         N/A
ONTARIO        CLEAR     44  18  35 NE7       29.97R
*PASADENA        N/A     45  21  39 CALM        N/A
RIVERSIDE      CLEAR     50  11  20 NE14G23   29.99R
SAN BERNARDINO NOT AVBL
*SAN GABRIEL     N/A     38  26  62 CALM      29.97R
*SAN RAFAEL HI   N/A     48  -6  10 W7          N/A
*SAUGUS          N/A     43  19  37 NW3G17      N/A
*WHITEMAN AP   NOT AVBL
*WHITTIER HILL   N/A     48  14  25 W2          N/A
*WOODLAND HILL   N/A     48  16  27 NW8G14      N/A

$$

CAZ054-055-261400-
LA AND SAN BERNARDINO COUNTY MOUNTAINS


CITY           SKY/WX    TMP DP  RH WIND       PRES   REMARKS
*BIG BEAR AIRP SUNNY     19   5  53 E8        29.94S WCI   9
MT WILSON NWS    N/A     27   1  33 MISG        N/A
SANDBERG       CLEAR     32  17  54 E16       29.99R WCI  21

$$

CAZ028-029-059-060-099-261400-
ANTELOPE VALLEY AND SURROUNDING AREAS


CITY           SKY/WX    TMP DP  RH WIND       PRES   REMARKS
LANCASTER      CLEAR     25  22  88 VRB3      30.05R
PALMDALE       CLEAR     27  22  81 CALM      30.05R
*POPPY PARK      N/A     29  24  80 N6          N/A  WCI  23

CITY           SKY/WX    TMP DP  RH WIND       PRES   REMARKS
29 PALMS       CLEAR     39  13  34 NW10      30.08R WCI  32
BARSTOW/DAGGET CLEAR     32  14  47 W6        30.05R WCI  26
BISHOP         PTCLDY    25  11  55 NW10      30.12R WCI  15
CHINA LAKE     CLEAR     37  13  37 N8        30.04R WCI  31
EDWARDS AFB    CLEAR     36  27  69 SW5       29.95R WCI  32
MOJAVE         FAIR      32  18  55 N9        30.04R WCI  24
NEEDLES        CLEAR     41  13  31 NW6       29.99R
VICTORVILLE      N/A     27  19  74 SW6       30.03R WCI  20

$$

CAZ039-040-261400-
VENTURA AND SANTA BARBARA COUNTY COAST


CITY           SKY/WX    TMP DP  RH WIND       PRES   REMARKS
CAMARILLO      CLEAR     46  27  47 NE10      30.01R
OXNARD AIRPORT CLEAR     44  27  51 NE9       30.02R
*POINT MUGU    CLEAR     49  29  46 NE10      30.02R
SBA APT/GOLETA CLEAR     40  31  70 E6        30.00R
*SANTA BARBARA   N/A     43  28  55 CALM      30.08R
*VENTURA         N/A     45  26  46 N3        30.05S

$$

CAZ044-045-261400-
VENTURA COUNTY VALLEYS


CITY           SKY/WX    TMP DP  RH WIND       PRES   REMARKS
*OJAI            N/A     30  26  82 CALM      30.02R
*FILLMORE        N/A     38  29  67 CALM      29.95R

$$

CAZ053-261400-
VENTURA COUNTY MOUNTAINS


CITY           SKY/WX    TMP DP  RH WIND       PRES   REMARKS
*LOCKWOOD VLY    N/A     16  10  79 W1          N/A
*ROSE VALLEY     N/A     23  23 100 MISG        N/A

$$

CAZ034-035-036-261400-
CENTRAL COAST AND SANTA YNEZ VALLEY


CITY           SKY/WX    TMP DP  RH WIND       PRES   REMARKS
SAN LUIS OBISP CLEAR     38  29  70 CALM      30.07R
SANTA MARIA    CLEAR     37  30  75 CALM      30.07R

CITY           SKY/WX    TMP DP  RH WIND       PRES   REMARKS
*CAL POLY SLO    N/A     41  30  65 NE5G10      N/A
*LOMPOC        CLEAR     32  25  74 CALM      30.06R
*PISMO BEACH     N/A     40  31  70 E3        30.08R
*SANTA YNEZ    FAIR      34  28  80 E3        30.04R

$$

CAZ037-038-051-261400-
SAN LUIS OBISPO COUNTY INTERIOR AND CUYAMA VALLEY


CITY           SKY/WX    TMP DP  RH WIND       PRES   REMARKS
*CUYAMA          N/A     31  27  87 CALM      30.08R
PASO ROBLES    CLEAR     30  27  88 NE5       30.07R WCI  25

$$

CAZ032-033-061-261400-
SOUTHERN DESERTS


CITY           SKY/WX    TMP DP  RH WIND       PRES   REMARKS
BLYTHE         CLEAR     41  17  38 NW8       29.99R
IMPERIAL       CLEAR     38  23  55 W6        29.99R WCI  33
PALM SPRINGS   CLEAR     50  12  21 VRB3      30.02R
THERMAL        CLEAR     45  14  28 CALM      30.00R

$$

ELSEWHERE ACROSS THE WESTERN UNITED STATES AND MEXICO


CITY           SKY/WX    TMP DP  RH WIND       PRES   REMARKS
DENVER, CO     LGT SNOW  15  13  91 N5        29.89S FOG     WCI   8
GRAND CANYON,  PTCLDY    16  13  88 NW5       29.78R WCI   9
HONOLULU, HI   PTCLDY    66  63  88 CALM      29.80S
KAHULUI, MAUI  CLEAR     63  61  94 SW3       29.80F
LAKE TAHOE, CA CLEAR     24   8  50 MISG      30.04F
LAS VEGAS, NV  PTCLDY    42  10  27 NW15G23   29.95R WCI  34
MAMMOTH LAKES, MOCLDY    16   7  67 W12       30.07R WCI   3
MEXICO CITY, M PTCLDY    54  45  71 SE7       30.30R
PHOENIX, AZ    CLEAR     41  17  38 CALM      29.91R
PORTLAND, OR   CLOUDY    42  41  96 E7        30.33F
RENO, NV       PTCLDY    27  16  63 N7        30.15R WCI  19
SALT LAKE CITY MOCLDY    24  17  74 N3        29.91R
SAN DIEGO, CA  CLEAR     48  32  53 CALM      29.97R
SAN FRANCISCO, CLEAR     53  35  50 N18       30.14R
SAN JOSE, CA   CLEAR     42  34  73 SW6       30.13R
SEATTLE, WA    CLOUDY    38  36  92 E5        30.33S WCI  34
TIJUANA, MEX   CLEAR     50  18  27 E12       29.97R

$$

STATION/POSITION TIME  TEMP    WIND        PRES    VSBY  WAVE
                       AIR SEA DIR/SP/G                  HT/PER
                 (UTC) (F)     (DEG/KT/KT) (MB)    (MI)  (FT/S)
POINT ARGUELLO B NOT AVBL
WEST SANTA BARBA 1300   54 61  340/ 17/ 21 1016.3R        11/11
POINT CONCEPTION NOT AVBL
EAST SANTA BARBA NOT AVBL
SANTA MONICA BAY 1300   58 63   20/ 21/ 25 1015.4R         6/ 5


USA.gov is the U.S. government's official web portal to all federal, state and local government web resources and services.